FALCON 9 DEB (47184 NORAD) Tracking and Keplerian Element Data

This shows tracking and keplerian element data for the satellite.

Feedback or suggestion? Click here.




ElementValue
Catalog47184
NameFALCON 9 DEB
Epoch Orbit398
Epoch Day351.81872322
Epoch Year2020
RAAN240.8512
Inclination53.037
Eccentricity0.0011699
Argument of Perigee143.5341
Mean Anonmoly216.6507
Mean Motion16.46412195
Decay Rate0.10080977
L11 47184U 20088BQ 20351.81872322 .10080977 12382-4 19146-3 0 9992
L22 47184 53.0370 240.8512 0011699 143.5341 216.6507 16.46412195 3989



Live tracking and technical data element details for FALCON 9 DEB (NORAD 47184). FALCON 9 DEB can be tracked NOW for your location showing map with azimuth and elevation plus other details from your city location.







IsCatalogInMostPopularTable: catalog: 47184, numindb: 156
Update: records affected: 1



GetName: 47184 FALCON 9 DEB

Hit Count: updated at: Sat, 10 Jun 2023 23:51:30 GMT